VIASAT-1                
1 37843U 11059A   19266.17267792 -.00000034  00000-0  00000+0 0  9993
2 37843   0.0038 141.0127 0002297  47.6805 120.1190  1.00271798 29611
BREEZE-M R/B            
1 37844U 11059B   19265.50037118 -.00000133  00000-0  00000+0 0  9997
2 37844  30.5317 305.1220 6634078  71.3513   6.5784  2.27324229 65772
BREEZE-M DEB [TANK]     
1 37845U 11059C   19266.14855677  .00000694  00000-0  12179-3 0  9992
2 37845  49.7389 305.1604 4597177 269.9187  39.3566  6.28810658180106